User: anonymous   Login
Location: Arbon
(43.0005°N, 0.7472°E)
Time: 12:14:01
(UTC+00:00)
Language:

Transit 4A - Orbit

View from above orbital plane
View from above orbital plane
View from above satellite
View from above satellite

Ground track
Ground track

The orbit data is extracted from the following two-line orbital elements,

1   116U 61015A   20334.89631916 -.00000035 +00000-0 +31860-4 0  9997
2   116 066.8079 163.7660 0081993 254.1872 105.0156 13.91779341014855
Epoch (UTC): 29 November 2020 21:30:41
Eccentricity: 0.0081993
inclination: 66.8079°
perigee height: 862 km
apogee height: 982 km
right ascension of ascending node: 163.7660°
argument of perigee: 254.1872°
revolutions per day: 13.91779341
mean anomaly at epoch: 105.0156°
orbit number at epoch: 1485

The dashed part of the orbit path shows where the satellite is in the earth's shadow,  

DLR